CFG321 EDDH-LEPA

Flight info

Callsign CFG321
Flight time 2h 40m
Altitude 23000
Route IDEKO7G/33 IDEKO N850 PIROT/N0450F350 N850 XAROL/N0447F340 DCT BOMBI DCT GIGET/N0453F360 DCT ABUKA DCT KRH DCT NATOR/N0451F350 DCT LUTIX DCT BENOT DCT NEMOS DCT GEVEA DCT INCUS DCT BALSI DCT RETNO DCT TUPOX DCT MTG DCT DIVKO DCT VATIR N852 VERSO L129 LUNIK LUNIK3M
Aircraft A321/M-SDE3FGHIRWY/LB1

Departure

Time 2026-05-07 18:49
Airport Hamburg Helmut Schmidt Airport (EDDH)

Arrival

Time 2026-05-07 21:30
Airport Palma de Mallorca Airport (LEPA)
Time Latitude Longitude Altitude Speed Heading
2026-05-07 18:38 53.63452 10.00317 48 ft 1 kts 86°
2026-05-07 18:41 53.63451 10.00311 48 ft 2 kts 86°
2026-05-07 18:41 53.63450 10.00280 46 ft 3 kts 86°
2026-05-07 18:42 53.63448 10.00246 44 ft 3 kts 86°
2026-05-07 18:42 53.63446 10.00212 44 ft 3 kts 86°
2026-05-07 18:42 53.63445 10.00179 44 ft 3 kts 101°
2026-05-07 18:42 53.63451 10.00155 45 ft 3 kts 154°
2026-05-07 18:43 53.63462 10.00149 46 ft 1 kts 176°
2026-05-07 18:43 53.63478 10.00147 48 ft 2 kts 176°
2026-05-07 18:43 53.63481 10.00147 48 ft 1 kts 176°
2026-05-07 18:45 53.63474 10.00149 48 ft 6 kts 168°
2026-05-07 18:45 53.63356 10.00232 45 ft 23 kts 173°
2026-05-07 18:45 53.63200 10.00252 48 ft 22 kts 176°
2026-05-07 18:45 53.63051 10.00250 45 ft 21 kts 201°
2026-05-07 18:46 53.62935 10.00120 48 ft 19 kts 212°
2026-05-07 18:46 53.62843 9.99975 48 ft 18 kts 243°
2026-05-07 18:46 53.62828 9.99778 43 ft 17 kts 298°
2026-05-07 18:46 53.62919 9.99693 44 ft 1 kts 333°
2026-05-07 18:48 53.62951 9.99666 45 ft 25 kts 333°
2026-05-07 18:49 53.63332 9.99338 47 ft 95 kts 333°
2026-05-07 18:49 53.64070 9.98736 51 ft 144 kts 332°
2026-05-07 18:49 53.65005 9.97931 320 ft 161 kts 336°
2026-05-07 18:49 53.66004 9.97067 876 ft 162 kts 335°
2026-05-07 18:50 53.66998 9.96154 1483 ft 163 kts 334°
2026-05-07 18:50 53.67979 9.95180 2091 ft 164 kts 332°
2026-05-07 18:50 53.69025 9.94245 2456 ft 180 kts 337°
2026-05-07 18:50 53.70208 9.93241 2676 ft 203 kts 330°
2026-05-07 18:51 53.71178 9.91369 2933 ft 226 kts 293°
2026-05-07 18:51 53.71338 9.88641 3331 ft 248 kts 256°
2026-05-07 18:51 53.70810 9.85745 3815 ft 267 kts 250°
2026-05-07 18:51 53.70204 9.82746 4654 ft 272 kts 250°
2026-05-07 18:52 53.69584 9.79713 5601 ft 275 kts 250°
2026-05-07 18:52 53.68959 9.76633 6466 ft 280 kts 251°
2026-05-07 18:52 53.68334 9.73518 7337 ft 282 kts 251°
2026-05-07 18:52 53.67708 9.70368 8197 ft 285 kts 251°
2026-05-07 18:53 53.67078 9.67185 9069 ft 287 kts 251°
2026-05-07 18:53 53.66435 9.63989 9911 ft 290 kts 248°
2026-05-07 18:53 53.65428 9.61047 10671 ft 291 kts 230°
2026-05-07 18:53 53.63920 9.58753 11359 ft 297 kts 213°
2026-05-07 18:54 53.61964 9.57299 11588 ft 320 kts 193°
2026-05-07 18:54 53.59686 9.56776 11773 ft 342 kts 186°
2026-05-07 18:54 53.57260 9.56332 12166 ft 356 kts 186°
2026-05-07 18:54 53.54782 9.55869 12858 ft 361 kts 186°
2026-05-07 18:55 53.52231 9.55383 13617 ft 365 kts 187°
2026-05-07 18:55 53.49731 9.54896 14304 ft 368 kts 187°
2026-05-07 18:55 53.47177 9.54388 14961 ft 372 kts 187°
2026-05-07 18:55 53.44592 9.53872 15617 ft 375 kts 187°
2026-05-07 18:56 53.41991 9.53351 16257 ft 379 kts 187°
2026-05-07 18:56 53.39373 9.52827 16896 ft 382 kts 187°
2026-05-07 18:56 53.36807 9.52319 17505 ft 386 kts 187°
2026-05-07 18:56 53.34128 9.51795 18136 ft 389 kts 187°
2026-05-07 18:57 53.31424 9.51269 18720 ft 392 kts 187°
2026-05-07 18:57 53.28704 9.50737 19260 ft 395 kts 187°
2026-05-07 18:57 53.25960 9.50199 19805 ft 398 kts 187°
2026-05-07 18:57 53.23235 9.49665 20337 ft 401 kts 187°
2026-05-07 18:58 53.20453 9.49121 20870 ft 404 kts 187°
2026-05-07 18:58 53.17652 9.48577 21400 ft 407 kts 188°
2026-05-07 18:58 53.14832 9.48029 21916 ft 409 kts 188°
2026-05-07 18:58 53.11992 9.47479 22444 ft 412 kts 188°
2026-05-07 18:59 53.09133 9.46926 22964 ft 415 kts 188°
2026-05-07 18:59 53.06251 9.46370 23479 ft 418 kts 188°
2026-05-07 18:59 53.03348 9.45808 23936 ft 421 kts 188°
2026-05-07 18:59 53.00429 9.45244 24358 ft 424 kts 188°
2026-05-07 19:00 52.97491 9.44667 24779 ft 426 kts 188°
2026-05-07 19:00 52.94539 9.44053 25195 ft 429 kts 188°
2026-05-07 19:00 52.91572 9.43411 25608 ft 431 kts 188°
2026-05-07 19:00 52.88586 9.42755 26018 ft 434 kts 188°
2026-05-07 19:01 52.85587 9.42096 26422 ft 436 kts 188°
2026-05-07 19:01 52.82565 9.41438 26823 ft 439 kts 188°
2026-05-07 19:01 52.79525 9.40786 27219 ft 442 kts 188°
2026-05-07 19:01 52.76468 9.40138 27604 ft 444 kts 188°
2026-05-07 19:02 52.73395 9.39492 27973 ft 447 kts 188°
2026-05-07 19:02 52.70246 9.38835 28352 ft 449 kts 188°
2026-05-07 19:02 52.67195 9.38198 28717 ft 452 kts 188°
2026-05-07 19:02 52.64062 9.37540 29086 ft 454 kts 188°
2026-05-07 19:03 52.60932 9.36860 29455 ft 457 kts 188°
2026-05-07 19:03 52.57822 9.36104 29926 ft 456 kts 189°
2026-05-07 19:03 52.54654 9.35265 30406 ft 455 kts 190°
2026-05-07 19:03 52.51541 9.34407 30818 ft 454 kts 190°
2026-05-07 19:04 52.48429 9.33544 31228 ft 453 kts 190°
2026-05-07 19:04 52.45364 9.32706 31632 ft 453 kts 190°
2026-05-07 19:04 52.42215 9.31866 32047 ft 452 kts 189°
2026-05-07 19:04 52.39153 9.31064 32444 ft 452 kts 190°
2026-05-07 19:05 52.36050 9.30262 32833 ft 452 kts 190°
2026-05-07 19:05 52.32904 9.29452 32993 ft 452 kts 189°
2026-05-07 19:05 52.29835 9.28659 33014 ft 452 kts 189°
2026-05-07 19:06 52.23635 9.27046 33012 ft 451 kts 189°
2026-05-07 19:06 52.17404 9.25689 33541 ft 452 kts 187°
2026-05-07 19:06 52.14286 9.25158 33944 ft 451 kts 186°
2026-05-07 19:07 52.11161 9.24656 34279 ft 451 kts 186°
2026-05-07 19:07 52.08113 9.24166 34588 ft 451 kts 187°
2026-05-07 19:07 52.04995 9.23642 34906 ft 450 kts 187°
2026-05-07 19:07 52.01887 9.22994 35083 ft 450 kts 189°
2026-05-07 19:08 51.95717 9.21348 35118 ft 449 kts 191°
2026-05-07 19:08 51.89566 9.19585 35118 ft 449 kts 191°
2026-05-07 19:09 51.83388 9.18036 35115 ft 449 kts 188°
2026-05-07 19:09 51.77180 9.16759 35113 ft 449 kts 188°
2026-05-07 19:10 51.70978 9.15499 35111 ft 449 kts 188°
2026-05-07 19:10 51.64779 9.14168 35112 ft 450 kts 189°
2026-05-07 19:11 51.58578 9.12795 35109 ft 450 kts 189°
2026-05-07 19:11 51.52374 9.11444 35109 ft 450 kts 188°
2026-05-07 19:12 51.46205 9.09842 35109 ft 449 kts 192°
2026-05-07 19:12 51.40108 9.07695 35109 ft 449 kts 194°
2026-05-07 19:13 51.34014 9.05457 35103 ft 449 kts 194°
2026-05-07 19:13 51.27914 9.03575 35107 ft 450 kts 189°
2026-05-07 19:14 51.21694 9.02397 35101 ft 450 kts 187°
2026-05-07 19:14 51.15457 9.01381 35107 ft 450 kts 188°
2026-05-07 19:15 51.09232 9.00215 35108 ft 450 kts 188°
2026-05-07 19:15 51.03017 8.98950 35109 ft 450 kts 189°
2026-05-07 19:16 50.96801 8.97679 35103 ft 450 kts 189°
2026-05-07 19:16 50.90580 8.96445 35105 ft 451 kts 188°
2026-05-07 19:17 50.84355 8.95234 35101 ft 451 kts 188°
2026-05-07 19:17 50.78135 8.94019 35098 ft 451 kts 188°
2026-05-07 19:18 50.71953 8.92806 35095 ft 451 kts 188°
2026-05-07 19:18 50.65734 8.91593 35095 ft 451 kts 188°
2026-05-07 19:19 50.60517 8.90578 35092 ft 451 kts 188°
2026-05-07 19:19 50.53304 8.89175 35082 ft 451 kts 189°
2026-05-07 19:20 50.47063 8.87965 35089 ft 451 kts 189°
2026-05-07 19:20 50.41849 8.86946 35084 ft 451 kts 189°
2026-05-07 19:21 50.35666 8.85755 35084 ft 451 kts 189°
2026-05-07 19:21 50.29436 8.84563 35074 ft 451 kts 189°
2026-05-07 19:22 50.23212 8.83370 35079 ft 451 kts 189°
2026-05-07 19:22 50.17089 8.82200 35081 ft 451 kts 189°
2026-05-07 19:23 50.10771 8.80990 35083 ft 451 kts 189°
2026-05-07 19:23 50.04510 8.79798 35082 ft 451 kts 189°
2026-05-07 19:24 49.98332 8.78544 35081 ft 450 kts 190°
2026-05-07 19:24 49.92117 8.77222 35071 ft 450 kts 190°
2026-05-07 19:25 49.85912 8.75919 35060 ft 450 kts 190°
2026-05-07 19:25 49.79747 8.74645 35067 ft 450 kts 190°
2026-05-07 19:26 49.73539 8.73367 35073 ft 450 kts 190°
2026-05-07 19:26 49.67326 8.72092 35076 ft 450 kts 190°
2026-05-07 19:27 49.61115 8.70833 35077 ft 450 kts 190°
2026-05-07 19:27 49.54910 8.69593 35080 ft 450 kts 190°
2026-05-07 19:28 49.48699 8.68354 35083 ft 450 kts 190°
2026-05-07 19:28 49.42499 8.67108 35082 ft 449 kts 190°
2026-05-07 19:29 49.36310 8.65852 35080 ft 448 kts 190°
2026-05-07 19:29 49.30130 8.64593 35076 ft 448 kts 190°
2026-05-07 19:30 49.23949 8.63354 35073 ft 448 kts 190°
2026-05-07 19:30 49.17764 8.62119 35062 ft 447 kts 190°
2026-05-07 19:31 49.11602 8.60887 35065 ft 447 kts 190°
2026-05-07 19:31 49.05439 8.59651 35067 ft 447 kts 191°
2026-05-07 19:32 48.99269 8.58413 35070 ft 446 kts 191°
2026-05-07 19:32 48.93213 8.56723 35074 ft 443 kts 195°
2026-05-07 19:33 48.87205 8.54613 35065 ft 443 kts 196°
2026-05-07 19:33 48.81237 8.52537 35072 ft 443 kts 195°
2026-05-07 19:34 48.75209 8.50588 35058 ft 443 kts 195°
2026-05-07 19:34 48.69178 8.48690 35079 ft 442 kts 195°
2026-05-07 19:35 48.63159 8.46775 35069 ft 442 kts 195°
2026-05-07 19:35 48.57146 8.44849 35070 ft 442 kts 195°
2026-05-07 19:36 48.51132 8.42929 35081 ft 442 kts 195°
2026-05-07 19:36 48.45119 8.41012 35076 ft 442 kts 195°
2026-05-07 19:37 48.39107 8.39099 35074 ft 442 kts 195°
2026-05-07 19:37 48.33091 8.37184 35063 ft 441 kts 195°
2026-05-07 19:38 48.27082 8.35285 35071 ft 441 kts 195°
2026-05-07 19:38 48.21072 8.33400 35071 ft 441 kts 195°
2026-05-07 19:39 48.15337 8.30413 35074 ft 434 kts 212°
2026-05-07 19:39 48.10264 8.25604 35075 ft 431 kts 216°
2026-05-07 19:40 48.05231 8.20748 35075 ft 431 kts 216°
2026-05-07 19:40 48.00180 8.15897 35071 ft 431 kts 216°
2026-05-07 19:41 47.95169 8.11091 35073 ft 431 kts 216°
2026-05-07 19:41 47.90129 8.06270 35073 ft 430 kts 216°
2026-05-07 19:42 47.85088 8.01462 35071 ft 430 kts 216°
2026-05-07 19:42 47.80056 7.96669 35071 ft 430 kts 216°
2026-05-07 19:43 47.75020 7.91866 35064 ft 429 kts 216°
2026-05-07 19:43 47.70020 7.87118 35058 ft 429 kts 216°
2026-05-07 19:44 47.64989 7.82364 35061 ft 429 kts 215°
2026-05-07 19:44 47.59954 7.77619 35057 ft 429 kts 215°
2026-05-07 19:45 47.54919 7.72878 35056 ft 429 kts 215°
2026-05-07 19:45 47.49893 7.68150 35046 ft 428 kts 216°
2026-05-07 19:46 47.44872 7.63436 35058 ft 427 kts 216°
2026-05-07 19:46 47.39854 7.58747 35058 ft 427 kts 216°
2026-05-07 19:47 47.34827 7.54067 35062 ft 427 kts 216°
2026-05-07 19:47 47.29817 7.49401 35031 ft 425 kts 216°
2026-05-07 19:48 47.24819 7.44745 35033 ft 424 kts 216°
2026-05-07 19:48 47.19835 7.40119 35027 ft 424 kts 216°
2026-05-07 19:49 47.15400 7.34924 35032 ft 417 kts 231°
2026-05-07 19:49 47.11750 7.28255 35033 ft 415 kts 234°
2026-05-07 19:50 47.08153 7.21636 35041 ft 415 kts 233°
2026-05-07 19:50 47.04545 7.15027 35055 ft 415 kts 233°
2026-05-07 19:51 47.00944 7.08428 35038 ft 415 kts 233°
2026-05-07 19:51 46.97339 7.01828 35031 ft 415 kts 233°
2026-05-07 19:52 46.93726 6.95239 35032 ft 416 kts 233°
2026-05-07 19:52 46.89813 6.88985 35029 ft 420 kts 222°
2026-05-07 19:53 46.85277 6.83596 35029 ft 421 kts 222°
2026-05-07 19:53 46.80738 6.78198 35031 ft 421 kts 222°
2026-05-07 19:54 46.76207 6.72796 35018 ft 421 kts 221°
2026-05-07 19:54 46.71669 6.67399 35033 ft 421 kts 221°
2026-05-07 19:55 46.67118 6.62026 35037 ft 421 kts 221°
2026-05-07 19:55 46.62569 6.56661 35039 ft 421 kts 221°
2026-05-07 19:56 46.58016 6.51296 35035 ft 421 kts 221°
2026-05-07 19:56 46.53457 6.45942 35042 ft 421 kts 221°
2026-05-07 19:57 46.48893 6.40591 35036 ft 422 kts 221°
2026-05-07 19:57 46.44354 6.35284 35030 ft 422 kts 221°
2026-05-07 19:58 46.39786 6.29942 35030 ft 422 kts 221°
2026-05-07 19:58 46.35218 6.24610 35030 ft 422 kts 221°
2026-05-07 19:59 46.30641 6.19302 35030 ft 422 kts 221°
2026-05-07 19:59 46.25823 6.14456 35030 ft 426 kts 208°
2026-05-07 20:00 46.20110 6.12033 35024 ft 433 kts 192°
2026-05-07 20:00 46.14161 6.10740 35029 ft 432 kts 192°
2026-05-07 20:01 46.08211 6.09413 35003 ft 432 kts 192°
2026-05-07 20:01 46.02267 6.08082 35002 ft 432 kts 192°
2026-05-07 20:02 45.96337 6.06764 35002 ft 430 kts 192°
2026-05-07 20:02 45.90423 6.05461 35002 ft 430 kts 192°
2026-05-07 20:03 45.84509 6.04162 35002 ft 430 kts 192°
2026-05-07 20:03 45.78596 6.02860 34999 ft 429 kts 193°
2026-05-07 20:04 45.72698 6.01550 35000 ft 429 kts 193°
2026-05-07 20:04 45.66801 6.00259 35002 ft 429 kts 192°
2026-05-07 20:05 45.60910 5.98970 34990 ft 428 kts 193°
2026-05-07 20:05 45.55022 5.97677 35001 ft 428 kts 193°
2026-05-07 20:06 45.49136 5.96389 35002 ft 428 kts 193°
2026-05-07 20:06 45.43300 5.94889 35001 ft 425 kts 196°
2026-05-07 20:07 45.37544 5.93000 35002 ft 424 kts 198°
2026-05-07 20:07 45.31800 5.91084 35011 ft 424 kts 197°
2026-05-07 20:08 45.27017 5.89566 35011 ft 424 kts 197°
2026-05-07 20:08 45.21253 5.87788 35016 ft 423 kts 197°
2026-05-07 20:09 45.15498 5.86017 35020 ft 423 kts 197°
2026-05-07 20:10 45.06878 5.83357 35025 ft 423 kts 197°
2026-05-07 20:10 45.01142 5.81590 35031 ft 420 kts 197°
2026-05-07 20:11 44.95462 5.79844 35025 ft 417 kts 197°
2026-05-07 20:11 44.89796 5.78097 35025 ft 417 kts 197°
2026-05-07 20:12 44.84132 5.76357 35016 ft 415 kts 198°
2026-05-07 20:12 44.78522 5.74649 35023 ft 411 kts 198°
2026-05-07 20:13 44.72934 5.72943 35023 ft 411 kts 198°
2026-05-07 20:13 44.67347 5.71235 35020 ft 411 kts 198°
2026-05-07 20:14 44.61798 5.69542 35021 ft 411 kts 198°
2026-05-07 20:14 44.56204 5.67846 35024 ft 411 kts 198°
2026-05-07 20:15 44.50610 5.66154 35018 ft 411 kts 198°
2026-05-07 20:15 44.45023 5.64464 35019 ft 410 kts 198°
2026-05-07 20:16 44.39459 5.62789 35017 ft 408 kts 198°
2026-05-07 20:16 44.34153 5.60247 35016 ft 402 kts 206°
2026-05-07 20:17 44.28955 5.57389 35018 ft 402 kts 206°
2026-05-07 20:17 44.23749 5.54538 35018 ft 402 kts 206°
2026-05-07 20:18 44.18535 5.51689 35017 ft 403 kts 206°
2026-05-07 20:18 44.13321 5.48842 35018 ft 402 kts 206°
2026-05-07 20:19 44.08110 5.46005 35003 ft 403 kts 206°
2026-05-07 20:19 44.02877 5.43177 35009 ft 404 kts 206°
2026-05-07 20:20 43.97647 5.40344 35014 ft 404 kts 206°
2026-05-07 20:20 43.92408 5.37504 35010 ft 404 kts 206°
2026-05-07 20:21 43.87164 5.34668 35008 ft 405 kts 206°
2026-05-07 20:21 43.81951 5.31849 35003 ft 404 kts 206°
2026-05-07 20:22 43.76721 5.29028 35001 ft 403 kts 205°
2026-05-07 20:22 43.71489 5.26221 35002 ft 403 kts 206°
2026-05-07 20:23 43.66251 5.23412 35004 ft 405 kts 205°
2026-05-07 20:23 43.60995 5.20602 35001 ft 405 kts 205°
2026-05-07 20:24 43.55741 5.17791 35003 ft 405 kts 205°
2026-05-07 20:24 43.50485 5.14979 34994 ft 405 kts 205°
2026-05-07 20:25 43.45226 5.12179 35004 ft 405 kts 205°
2026-05-07 20:25 43.39963 5.09375 35002 ft 405 kts 207°
2026-05-07 20:26 43.35184 5.05446 35002 ft 400 kts 217°
2026-05-07 20:26 43.30601 5.01104 34996 ft 400 kts 217°
2026-05-07 20:27 43.26006 4.96770 35000 ft 401 kts 216°
2026-05-07 20:27 43.21406 4.92454 35000 ft 400 kts 216°
2026-05-07 20:28 43.16820 4.88156 35001 ft 399 kts 216°
2026-05-07 20:28 43.12229 4.83860 34989 ft 400 kts 216°
2026-05-07 20:29 43.07633 4.79563 34998 ft 400 kts 216°
2026-05-07 20:29 43.02876 4.75594 34999 ft 402 kts 211°
2026-05-07 20:30 42.97989 4.71889 35003 ft 402 kts 211°
2026-05-07 20:30 42.93102 4.68189 34854 ft 400 kts 211°
2026-05-07 20:30 42.90691 4.66368 34601 ft 391 kts 211°
2026-05-07 20:31 42.88335 4.64591 34365 ft 382 kts 211°
2026-05-07 20:31 42.86038 4.62861 34128 ft 373 kts 211°
2026-05-07 20:31 42.83797 4.61171 33875 ft 364 kts 211°
2026-05-07 20:31 42.81609 4.59520 33597 ft 355 kts 211°
2026-05-07 20:32 42.79473 4.57907 33323 ft 347 kts 211°
2026-05-07 20:32 42.77414 4.56355 33069 ft 339 kts 211°
2026-05-07 20:32 42.75379 4.54820 32803 ft 331 kts 211°
2026-05-07 20:32 42.73382 4.53316 32539 ft 326 kts 211°
2026-05-07 20:33 42.71409 4.51832 32271 ft 323 kts 211°
2026-05-07 20:33 42.69449 4.50361 32008 ft 321 kts 211°
2026-05-07 20:33 42.67495 4.48899 31752 ft 320 kts 211°
2026-05-07 20:33 42.65547 4.47444 31498 ft 319 kts 211°
2026-05-07 20:34 42.63605 4.45992 31242 ft 318 kts 211°
2026-05-07 20:34 42.61673 4.44546 30988 ft 316 kts 211°
2026-05-07 20:34 42.59749 4.43107 30742 ft 316 kts 210°
2026-05-07 20:34 42.57825 4.41668 30503 ft 315 kts 210°
2026-05-07 20:35 42.55913 4.40237 30252 ft 314 kts 210°
2026-05-07 20:35 42.54007 4.38811 30000 ft 312 kts 210°
2026-05-07 20:35 42.52105 4.37391 29709 ft 311 kts 210°
2026-05-07 20:35 42.50212 4.35977 29423 ft 310 kts 210°
2026-05-07 20:36 42.48330 4.34576 29147 ft 308 kts 210°
2026-05-07 20:36 42.46456 4.33182 28865 ft 307 kts 210°
2026-05-07 20:36 42.44590 4.31795 28590 ft 306 kts 210°
2026-05-07 20:36 42.42728 4.30410 28318 ft 304 kts 210°
2026-05-07 20:37 42.40880 4.29037 28047 ft 302 kts 210°
2026-05-07 20:37 42.39040 4.27672 27783 ft 301 kts 210°
2026-05-07 20:37 42.37203 4.26310 27509 ft 300 kts 210°
2026-05-07 20:37 42.35375 4.24956 27243 ft 299 kts 210°
2026-05-07 20:38 42.33557 4.23611 26992 ft 298 kts 210°
2026-05-07 20:38 42.31766 4.22287 26741 ft 298 kts 209°
2026-05-07 20:38 42.29948 4.20942 26481 ft 298 kts 209°
2026-05-07 20:38 42.28133 4.19599 26229 ft 297 kts 209°
2026-05-07 20:39 42.26324 4.18262 25986 ft 295 kts 209°
2026-05-07 20:39 42.24525 4.16933 25735 ft 294 kts 209°
2026-05-07 20:39 42.22731 4.15612 25486 ft 294 kts 209°
2026-05-07 20:39 42.20941 4.14294 25242 ft 292 kts 210°
2026-05-07 20:40 42.19163 4.12983 24998 ft 291 kts 210°
2026-05-07 20:40 42.17386 4.11675 24762 ft 291 kts 210°
2026-05-07 20:40 42.15614 4.10371 24523 ft 290 kts 210°
2026-05-07 20:40 42.13849 4.09073 24287 ft 289 kts 210°
2026-05-07 20:41 42.12086 4.07782 24043 ft 288 kts 209°
2026-05-07 20:41 42.10319 4.06488 23813 ft 289 kts 209°
2026-05-07 20:41 42.08550 4.05190 23581 ft 289 kts 210°
2026-05-07 20:41 42.06791 4.03897 23310 ft 288 kts 210°
2026-05-07 20:42 42.05034 4.02607 23039 ft 287 kts 210°
2026-05-07 20:42 42.03280 4.01321 22771 ft 287 kts 210°
2026-05-07 20:42 42.01531 4.00038 22503 ft 286 kts 210°
2026-05-07 20:42 41.99787 3.98760 22232 ft 285 kts 210°
2026-05-07 20:43 41.98047 3.97492 21960 ft 284 kts 210°
2026-05-07 20:43 41.96310 3.96225 21703 ft 284 kts 210°
2026-05-07 20:43 41.94571 3.94978 21453 ft 283 kts 207°
2026-05-07 20:43 41.92763 3.93927 21186 ft 283 kts 202°
2026-05-07 20:44 41.90891 3.93125 20927 ft 283 kts 195°
2026-05-07 20:44 41.88969 3.92570 20674 ft 282 kts 191°
2026-05-07 20:44 41.87036 3.92125 20428 ft 281 kts 191°
2026-05-07 20:44 41.85114 3.91679 20176 ft 280 kts 191°
2026-05-07 20:45 41.83196 3.91239 19934 ft 279 kts 191°
2026-05-07 20:45 41.81284 3.90797 19690 ft 279 kts 191°
2026-05-07 20:45 41.79379 3.90354 19446 ft 278 kts 191°
2026-05-07 20:45 41.77473 3.89911 19208 ft 277 kts 191°
2026-05-07 20:46 41.75575 3.89475 18973 ft 277 kts 191°
2026-05-07 20:46 41.73677 3.89041 18734 ft 276 kts 191°
2026-05-07 20:46 41.71785 3.88606 18496 ft 276 kts 191°
2026-05-07 20:46 41.69922 3.88175 18262 ft 275 kts 191°
2026-05-07 20:47 41.68043 3.87744 17997 ft 273 kts 190°
2026-05-07 20:47 41.66146 3.87309 17724 ft 273 kts 190°
2026-05-07 20:47 41.64303 3.86886 17462 ft 272 kts 190°
2026-05-07 20:47 41.62416 3.86451 17197 ft 271 kts 190°
2026-05-07 20:48 41.60581 3.86028 16940 ft 271 kts 190°
2026-05-07 20:48 41.58726 3.85602 16678 ft 270 kts 190°
2026-05-07 20:48 41.56875 3.85174 16424 ft 270 kts 190°
2026-05-07 20:48 41.55026 3.84747 16169 ft 269 kts 190°
2026-05-07 20:49 41.53184 3.84325 15921 ft 269 kts 189°
2026-05-07 20:49 41.51340 3.83900 15666 ft 268 kts 189°
2026-05-07 20:49 41.49508 3.83479 15421 ft 266 kts 188°
2026-05-07 20:49 41.47692 3.83063 15170 ft 264 kts 188°
2026-05-07 20:50 41.45889 3.82653 14925 ft 263 kts 188°
2026-05-07 20:50 41.44089 3.82241 14683 ft 262 kts 188°
2026-05-07 20:50 41.42297 3.81830 14440 ft 262 kts 188°
2026-05-07 20:50 41.40503 3.81422 14196 ft 261 kts 188°
2026-05-07 20:51 41.38713 3.81017 13962 ft 261 kts 188°
2026-05-07 20:51 41.36920 3.80609 13724 ft 261 kts 189°
2026-05-07 20:51 41.35132 3.80199 13451 ft 260 kts 189°
2026-05-07 20:51 41.33353 3.79791 13181 ft 259 kts 189°
2026-05-07 20:52 41.31578 3.79386 12918 ft 258 kts 189°
2026-05-07 20:52 41.29813 3.78984 12656 ft 257 kts 189°
2026-05-07 20:52 41.28052 3.78582 12397 ft 256 kts 189°
2026-05-07 20:52 41.26301 3.78183 12139 ft 254 kts 189°
2026-05-07 20:53 41.24559 3.77786 11882 ft 254 kts 189°
2026-05-07 20:53 41.22818 3.77393 11632 ft 254 kts 189°
2026-05-07 20:53 41.21080 3.77000 11378 ft 253 kts 189°
2026-05-07 20:53 41.19346 3.76606 11129 ft 253 kts 189°
2026-05-07 20:54 41.17615 3.76214 10885 ft 253 kts 188°
2026-05-07 20:54 41.15893 3.75753 10640 ft 253 kts 193°
2026-05-07 20:54 41.14203 3.75094 10397 ft 253 kts 198°
2026-05-07 20:54 41.12559 3.74265 10158 ft 253 kts 200°
2026-05-07 20:55 41.10924 3.73415 9918 ft 253 kts 200°
2026-05-07 20:55 41.09296 3.72576 9897 ft 251 kts 200°
2026-05-07 20:55 41.07664 3.71737 9900 ft 252 kts 200°
2026-05-07 20:55 41.06018 3.70893 9908 ft 255 kts 201°
2026-05-07 20:56 41.04360 3.70043 9905 ft 257 kts 200°
2026-05-07 20:56 41.02692 3.69189 9900 ft 257 kts 200°
2026-05-07 20:56 41.01023 3.68331 9905 ft 256 kts 201°
2026-05-07 20:56 40.99360 3.67476 9907 ft 256 kts 201°
2026-05-07 20:57 40.97705 3.66624 9904 ft 254 kts 201°
2026-05-07 20:57 40.96060 3.65774 9899 ft 255 kts 201°
2026-05-07 20:57 40.94965 3.65210 9911 ft 256 kts 200°
2026-05-07 20:57 40.93308 3.64359 9909 ft 255 kts 200°
2026-05-07 20:58 40.91646 3.63508 9908 ft 257 kts 200°
2026-05-07 20:58 40.89983 3.62657 9903 ft 256 kts 200°
2026-05-07 20:58 40.88328 3.61810 9904 ft 256 kts 200°
2026-05-07 20:58 40.86672 3.60961 9902 ft 255 kts 200°
2026-05-07 20:59 40.85017 3.60111 9900 ft 255 kts 201°
2026-05-07 20:59 40.83349 3.59256 9908 ft 260 kts 201°
2026-05-07 20:59 40.81665 3.58395 9906 ft 259 kts 201°
2026-05-07 20:59 40.79974 3.57536 9907 ft 262 kts 201°
2026-05-07 21:00 40.78275 3.56672 9906 ft 261 kts 201°
2026-05-07 21:00 40.76586 3.55811 9916 ft 261 kts 201°
2026-05-07 21:00 40.74899 3.54948 9910 ft 259 kts 201°
2026-05-07 21:00 40.73220 3.54090 9914 ft 259 kts 201°
2026-05-07 21:01 40.71558 3.53245 9915 ft 260 kts 201°
2026-05-07 21:01 40.69874 3.52388 9907 ft 260 kts 201°
2026-05-07 21:01 40.68160 3.51517 9905 ft 261 kts 201°
2026-05-07 21:01 40.66469 3.50655 9898 ft 260 kts 201°
2026-05-07 21:02 40.64785 3.49796 9911 ft 260 kts 201°
2026-05-07 21:02 40.63124 3.48948 9908 ft 258 kts 201°
2026-05-07 21:02 40.61451 3.48096 9901 ft 259 kts 201°
2026-05-07 21:02 40.59766 3.47240 9908 ft 260 kts 201°
2026-05-07 21:03 40.58081 3.46385 9911 ft 261 kts 201°
2026-05-07 21:03 40.56383 3.45526 9902 ft 261 kts 201°
2026-05-07 21:03 40.54691 3.44670 9907 ft 260 kts 201°
2026-05-07 21:03 40.53002 3.43815 9914 ft 260 kts 201°
2026-05-07 21:04 40.51319 3.42962 9909 ft 259 kts 201°
2026-05-07 21:04 40.49639 3.42114 9900 ft 259 kts 201°
2026-05-07 21:04 40.47949 3.41263 9911 ft 259 kts 201°
2026-05-07 21:04 40.46238 3.40508 9901 ft 261 kts 195°
2026-05-07 21:05 40.44473 3.39951 9904 ft 261 kts 189°
2026-05-07 21:05 40.42679 3.39601 9827 ft 259 kts 185°
2026-05-07 21:05 40.40882 3.39464 9699 ft 260 kts 178°
2026-05-07 21:05 40.39076 3.39525 9562 ft 258 kts 175°
2026-05-07 21:06 40.37288 3.39633 9425 ft 257 kts 175°
2026-05-07 21:06 40.35503 3.39734 9293 ft 257 kts 175°
2026-05-07 21:06 40.33715 3.39831 9159 ft 257 kts 175°
2026-05-07 21:06 40.31925 3.39930 9029 ft 258 kts 175°
2026-05-07 21:07 40.30140 3.40032 8890 ft 256 kts 175°
2026-05-07 21:07 40.28360 3.40133 8770 ft 257 kts 175°
2026-05-07 21:07 40.26581 3.40236 8640 ft 256 kts 175°
2026-05-07 21:07 40.24798 3.40338 8509 ft 257 kts 175°
2026-05-07 21:08 40.23014 3.40442 8386 ft 256 kts 175°
2026-05-07 21:08 40.21245 3.40538 8244 ft 253 kts 175°
2026-05-07 21:08 40.19482 3.40635 8133 ft 251 kts 175°
2026-05-07 21:08 40.17758 3.40730 8010 ft 246 kts 176°
2026-05-07 21:09 40.16055 3.40827 7882 ft 244 kts 176°
2026-05-07 21:09 40.14361 3.40924 7756 ft 243 kts 176°
2026-05-07 21:09 40.12673 3.41021 7630 ft 244 kts 175°
2026-05-07 21:09 40.10998 3.41117 7505 ft 244 kts 175°
2026-05-07 21:10 40.09299 3.41214 7380 ft 244 kts 175°
2026-05-07 21:10 40.07607 3.41310 7257 ft 243 kts 176°
2026-05-07 21:10 40.05922 3.41403 7132 ft 243 kts 175°
2026-05-07 21:10 40.04225 3.41500 7009 ft 244 kts 175°
2026-05-07 21:11 40.02531 3.41596 6888 ft 243 kts 176°
2026-05-07 21:11 40.00842 3.41692 6764 ft 243 kts 175°
2026-05-07 21:11 39.97481 3.41883 6522 ft 240 kts 176°
2026-05-07 21:12 39.95845 3.41973 6401 ft 230 kts 177°
2026-05-07 21:12 39.94253 3.42062 6271 ft 229 kts 177°
2026-05-07 21:12 39.92668 3.42153 6138 ft 228 kts 177°
2026-05-07 21:12 39.91080 3.42243 6010 ft 228 kts 177°
2026-05-07 21:13 39.89493 3.42334 5888 ft 228 kts 177°
2026-05-07 21:13 39.87913 3.42422 5750 ft 226 kts 177°
2026-05-07 21:13 39.86349 3.42508 5622 ft 224 kts 176°
2026-05-07 21:13 39.84785 3.42595 5493 ft 225 kts 176°
2026-05-07 21:14 39.83217 3.42682 5371 ft 225 kts 177°
2026-05-07 21:14 39.81656 3.42768 5250 ft 224 kts 176°
2026-05-07 21:14 39.80106 3.42851 5108 ft 223 kts 178°
2026-05-07 21:14 39.78603 3.42485 4920 ft 221 kts 204°
2026-05-07 21:15 39.77348 3.41295 4870 ft 226 kts 220°
2026-05-07 21:15 39.76168 3.39938 4822 ft 227 kts 219°
2026-05-07 21:15 39.74987 3.38575 4775 ft 228 kts 220°
2026-05-07 21:15 39.73797 3.37205 4722 ft 228 kts 220°
2026-05-07 21:16 39.72605 3.35834 4667 ft 229 kts 219°
2026-05-07 21:16 39.71413 3.34460 4616 ft 230 kts 219°
2026-05-07 21:16 39.70217 3.33074 4554 ft 230 kts 219°
2026-05-07 21:16 39.69021 3.31693 4503 ft 230 kts 219°
2026-05-07 21:17 39.67827 3.30318 4448 ft 230 kts 219°
2026-05-07 21:17 39.66628 3.28941 4391 ft 230 kts 220°
2026-05-07 21:17 39.65432 3.27569 4346 ft 229 kts 219°
2026-05-07 21:17 39.64237 3.26199 4291 ft 229 kts 220°
2026-05-07 21:18 39.63044 3.24831 4239 ft 229 kts 219°
2026-05-07 21:18 39.62007 3.23258 4183 ft 232 kts 237°
2026-05-07 21:18 39.61284 3.21405 4128 ft 233 kts 242°
2026-05-07 21:18 39.60563 3.19524 4076 ft 233 kts 242°
2026-05-07 21:19 39.59839 3.17647 4013 ft 233 kts 242°
2026-05-07 21:19 39.59114 3.15776 3966 ft 231 kts 242°
2026-05-07 21:19 39.58390 3.13915 3915 ft 232 kts 242°
2026-05-07 21:19 39.57662 3.12046 3861 ft 232 kts 242°
2026-05-07 21:20 39.56935 3.10178 3816 ft 233 kts 241°
2026-05-07 21:20 39.56202 3.08296 3758 ft 234 kts 242°
2026-05-07 21:20 39.55472 3.06419 3703 ft 233 kts 242°
2026-05-07 21:20 39.54746 3.04548 3645 ft 233 kts 243°
2026-05-07 21:21 39.54018 3.02671 3598 ft 232 kts 243°
2026-05-07 21:21 39.53315 3.00867 3566 ft 218 kts 243°
2026-05-07 21:21 39.52633 2.99122 3507 ft 217 kts 243°
2026-05-07 21:21 39.51959 2.97397 3460 ft 214 kts 243°
2026-05-07 21:22 39.51284 2.95667 3416 ft 216 kts 243°
2026-05-07 21:22 39.50611 2.93939 3365 ft 216 kts 243°
2026-05-07 21:22 39.49937 2.92211 3323 ft 214 kts 243°
2026-05-07 21:22 39.49265 2.90489 3275 ft 215 kts 243°
2026-05-07 21:23 39.48592 2.88765 3214 ft 213 kts 243°
2026-05-07 21:23 39.47923 2.87058 3163 ft 212 kts 243°
2026-05-07 21:23 39.47256 2.85357 3124 ft 208 kts 243°
2026-05-07 21:23 39.46641 2.83784 3076 ft 185 kts 244°
2026-05-07 21:24 39.46084 2.82357 3032 ft 174 kts 244°
2026-05-07 21:24 39.45534 2.80957 3008 ft 174 kts 243°
2026-05-07 21:24 39.44989 2.79574 2970 ft 171 kts 242°
2026-05-07 21:24 39.44452 2.78208 2929 ft 171 kts 242°
2026-05-07 21:25 39.43978 2.76797 2895 ft 169 kts 253°
2026-05-07 21:25 39.43774 2.75309 2859 ft 167 kts 268°
2026-05-07 21:25 39.43842 2.73817 2822 ft 170 kts 281°
2026-05-07 21:25 39.44089 2.72319 2812 ft 169 kts 282°
2026-05-07 21:26 39.44321 2.70849 2776 ft 167 kts 280°
2026-05-07 21:26 39.44555 2.69371 2732 ft 169 kts 285°
2026-05-07 21:26 39.44950 2.67961 2700 ft 166 kts 299°
2026-05-07 21:26 39.45606 2.66730 2656 ft 165 kts 315°
2026-05-07 21:27 39.46444 2.65783 2615 ft 153 kts 331°
2026-05-07 21:27 39.47361 2.65159 2578 ft 146 kts 343°
2026-05-07 21:27 39.48316 2.64823 2548 ft 138 kts 357°
2026-05-07 21:27 39.49275 2.64750 2182 ft 139 kts
2026-05-07 21:28 39.50248 2.64951 1614 ft 144 kts 19°
2026-05-07 21:28 39.51183 2.65429 1083 ft 144 kts 31°
2026-05-07 21:28 39.51975 2.66120 943 ft 133 kts 43°
2026-05-07 21:28 39.52619 2.66962 806 ft 132 kts 52°
2026-05-07 21:29 39.53140 2.67933 655 ft 132 kts 56°
2026-05-07 21:29 39.53661 2.68939 460 ft 136 kts 57°
2026-05-07 21:29 39.54167 2.69962 271 ft 135 kts 57°
2026-05-07 21:29 39.54665 2.70989 95 ft 134 kts 57°
2026-05-07 21:30 39.55126 2.71949 38 ft 102 kts 58°
2026-05-07 21:30 39.55345 2.72406 38 ft 31 kts 58°
2026-05-07 21:30 39.55469 2.72675 38 ft 39 kts 67°
2026-05-07 21:30 39.55499 2.73008 38 ft 36 kts 90°
2026-05-07 21:31 39.55537 2.73246 37 ft 26 kts 57°
2026-05-07 21:31 39.55618 2.73434 38 ft 21 kts 79°
2026-05-07 21:31 39.55524 2.73559 38 ft 21 kts 179°
2026-05-07 21:31 39.55438 2.73475 38 ft 15 kts 211°
2026-05-07 21:32 39.55304 2.73540 38 ft 25 kts 147°
2026-05-07 21:32 39.55199 2.73608 38 ft 10 kts 185°
2026-05-07 21:32 39.55142 2.73523 38 ft 19 kts 239°
2026-05-07 21:32 39.55081 2.73471 38 ft 9 kts 177°
2026-05-07 21:33 39.55031 2.73486 36 ft 6 kts 165°
2026-05-07 21:33 39.55025 2.73488 37 ft 0 kts 165°